This is the latest recevied weather packets stored in our database for station/object IR3ZXT. If no packets are shown the sender has not sent any weather packets the latest 10 day(s).
| Time | Temp. | Humidity | Pressure | Rain* | Wind** | Luminosity | Snow |
|---|---|---|---|---|---|---|---|
| 1787807117 | 12.78° C | 85% | 870 hPa | 0 mm | - | - | - |
| 1787806817 | 12.78° C | 84% | 869.9 hPa | 0 mm | - | - | - |
| 1787806517 | 12.78° C | 83% | 869.9 hPa | 0 mm | - | - | - |
| 1787806217 | 12.78° C | 81% | 869.9 hPa | 0 mm | - | - | - |
| 1787805954 | 13.33° C | 79% | 869.9 hPa | 0 mm | - | - | - |
| 1787805917 | 13.33° C | 79% | 869.9 hPa | 0 mm | - | - | - |
| 1787805617 | 13.33° C | 78% | 870 hPa | 0 mm | - | - | - |
| 1787805317 | 13.33° C | 77% | 869.8 hPa | 0 mm | - | - | - |
| 1787805017 | 13.33° C | 74% | 869.8 hPa | 0 mm | - | - | - |
| 1787804717 | 13.33° C | 76% | 869.6 hPa | 0 mm | - | - | - |
| 1787804417 | 13.33° C | 78% | 869.5 hPa | 0 mm | - | - | - |
| 1787804117 | 13.33° C | 78% | 869.3 hPa | 0 mm | - | - | - |
| 1787803817 | 13.33° C | 79% | 869.4 hPa | 0 mm | - | - | - |
| 1787803517 | 12.78° C | 80% | 869.5 hPa | 0 mm | - | - | - |
| 1787803217 | 12.78° C | 80% | 869.5 hPa | 0 mm | - | - | - |
| 1787802917 | 12.78° C | 81% | 869.6 hPa | 0 mm | - | - | - |
| 1787802617 | 12.78° C | 81% | 869.4 hPa | 0 mm | - | - | - |
| 1787802317 | 12.78° C | 83% | 869.5 hPa | 0 mm | - | - | - |
| 1787802017 | 12.78° C | 83% | 869.5 hPa | 0 mm | - | - | - |
| 1787801717 | 12.22° C | 83% | 869.5 hPa | 0 mm | - | - | - |
| 1787801417 | 12.22° C | 83% | 869.5 hPa | 0 mm | - | - | - |
| 1787801117 | 12.22° C | 84% | 869.7 hPa | 0 mm | - | - | - |
| 1787800817 | 12.22° C | 84% | 869.6 hPa | 0 mm | - | - | - |
| 1787800517 | 12.22° C | 86% | 869.6 hPa | 0 mm | - | - | - |
| 1787800275 | 12.22° C | 85% | 869.6 hPa | 0 mm | - | - | - |
* Rain latest hour (hover to see other rain measurements)
** Current wind speed in m/s (hover to see current wind gust speed)